星链-32305 (STARLINK-32305)

导读

STARLINK-32305是美国太空探索技术公司SpaceX星链星座的成员,于2024年10月15日发射入轨,属于星链网络扩容卫星。该卫星依托SpaceX可回收运载火箭完成部署,旨在为全球提供低延迟、高速率的宽带互联网覆盖,尤其服务偏远地区与移动网络场景,进一步完善星链星座的全球通信服务能力。

基本信息
目录编号:
61523
目录名称:
STARLINK-32305
国际标识:
2024-183Q
轨道中心:
EARTH
卫星名称:
星链-32305
卫星全名:
星链-32305 (STARLINK-32305)
卫星状态:
在轨 (已飞行689 天)
发射日期:
2024-10-15 UTC
国别 :
美国 (US)
星等 :
--
轨道信息
数据来源 国际轨道数据
星历时间: 2026-09-03T18:21:02+0800
17小时前
查看轨道信息
半长轴: 6840.865km
偏心率: 0.0000953
轨道倾角: 53.162°
近地点辐角 89.684°
升交点赤经 35.564°
平近点角 270.427°
近地点: 462.076km
远地点: 463.38km
周期: 93.848分钟
每日圈数: 15.343919
详细信息
固有亮度:
5
最大亮度:
2.5
卫星平台:
Starlink V1.0
覆盖范围:
全球
运营商:
太空探索技术公司
运营商所在国:
美国
制造商(研发单位):
太空探索技术公司
制造商所在国:
美国
使用方式:
暂无
卫星简介
Starlink 计划是 SpaceX 推出的全球卫星互联网项目,通过发射低轨道卫星,为全球尤其是偏远地区提供高速、低延迟的互联网服务。自 2019 年起,Starlink 已部署数千颗卫星,旨在缩小全球数字鸿沟,推动互联网普及。该项目还为军事、航空等行业提供通信支持,带来广泛经济效益。
2D轨道图
3D轨道图
轨道高度分析图
轨道倾角分析图
轨道综合分析图
查看轨道综合分析图